CCA225 ESGG-EDDF

Flight info

Callsign CCA225
Flight time N/A
Altitude 35000
Route TOPLA3J TOPLA L996 ERNOV/N0483F380 DCT NIKDA DCT NOBRI DCT BUMIL DCT HLZ DCT RIMET/N0480F310 T157 KOKEB/N0435F230 T157 KERAX KERAX5A
Aircraft B77W/H-SDE1E2E3FGHIJ2J3J4J5M1RWXY/LB1D1

Departure

Time 2026-05-07 05:41
Airport Göteborg Landvetter Airport (ESGG)

Arrival

Time N/A
Airport Frankfurt Main Airport (EDDF)
Time Latitude Longitude Altitude Speed Heading
2026-05-07 05:37 57.67263 12.29388 513 ft 16 kts 28°
2026-05-07 05:38 57.67307 12.29429 514 ft 0 kts 25°
2026-05-07 05:38 57.67316 12.29436 514 ft 2 kts 25°
2026-05-07 05:38 57.67329 12.29448 515 ft 0 kts 24°
2026-05-07 05:39 57.67330 12.29448 515 ft 0 kts 24°
2026-05-07 05:39 57.67349 12.29462 515 ft 7 kts 17°
2026-05-07 05:39 57.67421 12.29417 514 ft 16 kts 307°
2026-05-07 05:39 57.67456 12.29201 512 ft 18 kts 270°
2026-05-07 05:40 57.67388 12.28993 512 ft 18 kts 213°
2026-05-07 05:40 57.67309 12.28913 512 ft 11 kts 206°
2026-05-07 05:40 57.67199 12.28812 510 ft 29 kts 205°
2026-05-07 05:40 57.66810 12.28470 513 ft 108 kts 206°
2026-05-07 05:41 57.65855 12.27595 509 ft 193 kts 204°
2026-05-07 05:41 57.64554 12.26344 1048 ft 212 kts 204°
2026-05-07 05:41 57.63273 12.25214 1945 ft 209 kts 204°
2026-05-07 05:41 57.61923 12.24016 2478 ft 225 kts 204°
2026-05-07 05:42 57.60385 12.23000 2960 ft 240 kts 186°
2026-05-07 05:42 57.58681 12.22790 3541 ft 254 kts 180°
2026-05-07 05:42 57.56871 12.22684 4160 ft 270 kts 180°
2026-05-07 05:42 57.54947 12.22771 4794 ft 284 kts 172°
2026-05-07 05:43 57.52938 12.23282 5402 ft 299 kts 170°
2026-05-07 05:43 57.50883 12.23865 6272 ft 303 kts 170°
2026-05-07 05:43 57.48824 12.24437 7267 ft 303 kts 170°
2026-05-07 05:43 57.46749 12.25003 8272 ft 305 kts 171°
2026-05-07 05:44 57.44595 12.25587 9321 ft 324 kts 171°
2026-05-07 05:44 57.42330 12.26199 10376 ft 343 kts 171°
2026-05-07 05:44 57.39922 12.26848 11434 ft 360 kts 171°
2026-05-07 05:44 57.37385 12.27531 12491 ft 377 kts 171°
2026-05-07 05:45 57.34745 12.28240 13539 ft 392 kts 171°
2026-05-07 05:45 57.32041 12.28966 14700 ft 403 kts 171°
2026-05-07 05:45 57.29265 12.29710 15912 ft 411 kts 171°
2026-05-07 05:45 57.26402 12.30476 17003 ft 422 kts 171°
2026-05-07 05:46 57.24457 12.30996 17748 ft 428 kts 171°
2026-05-07 05:46 57.20535 12.32042 19255 ft 438 kts 171°
2026-05-07 05:46 57.17505 12.32848 20433 ft 443 kts 171°
2026-05-07 05:46 57.14439 12.33663 21542 ft 449 kts 171°
2026-05-07 05:47 57.11374 12.34460 22565 ft 456 kts 172°
2026-05-07 05:47 57.08207 12.35246 23579 ft 463 kts 172°
2026-05-07 05:47 57.04997 12.36039 24633 ft 467 kts 172°
2026-05-07 05:47 57.01803 12.36828 25675 ft 471 kts 172°
2026-05-07 05:48 56.98528 12.37637 26675 ft 473 kts 172°
2026-05-07 05:48 56.95291 12.38436 27533 ft 477 kts 172°
2026-05-07 05:48 56.91959 12.39257 28312 ft 482 kts 172°
2026-05-07 05:48 56.88668 12.40067 29055 ft 487 kts 172°
2026-05-07 05:49 56.85306 12.40894 30002 ft 485 kts 172°
2026-05-07 05:49 56.82003 12.41704 31159 ft 478 kts 172°
2026-05-07 05:49 56.78709 12.42511 32089 ft 474 kts 172°
2026-05-07 05:49 56.75445 12.43310 32775 ft 475 kts 172°
2026-05-07 05:50 56.72130 12.44120 33368 ft 476 kts 172°
2026-05-07 05:50 56.68858 12.44917 33986 ft 477 kts 172°
2026-05-07 05:50 56.66664 12.45453 34395 ft 476 kts 174°
2026-05-07 05:50 56.62293 12.46517 34905 ft 482 kts 178°
2026-05-07 05:51 56.58935 12.47325 34938 ft 493 kts 178°
2026-05-07 05:51 56.55484 12.48155 34940 ft 504 kts 178°
2026-05-07 05:51 56.52019 12.48989 34941 ft 513 kts 177°
2026-05-07 05:52 56.44867 12.50714 34937 ft 518 kts 177°
2026-05-07 05:52 56.37750 12.52424 34937 ft 519 kts 177°
2026-05-07 05:53 56.30614 12.54130 34936 ft 516 kts 177°